Location: Glasgow
(55.8642°N, 4.2518°W)
Time: 13:02:51
(UTC+01:00)

Envisat - Visible Passes

Search period start: 22 October 2017 00:00
Search period end: 31 October 2017 23:00
Orbit: 764 x 766 km, 98.2° (Epoch: 22 October)

Date Brightness Start Highest point End Pass type
(mag) Time Alt. Az. Time Alt. Az. Time Alt. Az.
22 Oct 4.5 18:44:41 10° E 18:47:51 17° NE 18:51:02 10° N visible
22 Oct 2.9 20:24:10 38° SE 20:26:03 67° ENE 20:31:08 10° NNW visible
22 Oct 4.9 22:04:23 23° WSW 22:05:33 25° W 22:09:44 10° NW visible
23 Oct 3.5 19:47:11 25° ESE 19:49:31 38° ENE 19:54:13 10° N visible
23 Oct 3.9 21:27:24 39° SW 21:28:31 44° W 21:33:24 10° NNW visible
24 Oct 4.2 19:10:12 14° E 19:13:07 23° NE 19:17:05 10° N visible
24 Oct 3.0 20:50:25 53° S 20:51:39 81° WSW 20:56:47 10° NNW visible
24 Oct 5.4 22:30:38 16° W 22:31:31 16° W 22:34:40 10° NW visible
25 Oct 4.7 18:34:09 10° ENE 18:36:54 15° NE 18:39:40 10° NNE visible
25 Oct 3.0 20:13:25 40° ESE 20:14:59 57° ENE 20:19:59 10° N visible
25 Oct 4.6 21:53:38 28° WSW 21:54:20 29° W 21:58:46 10° NNW visible
26 Oct 3.7 19:36:26 24° E 19:38:29 33° ENE 19:43:00 10° N visible
26 Oct 3.6 21:16:39 49° SW 21:17:20 53° W 21:22:20 10° NNW visible
26 Oct 5.9 22:57:11 10° W 22:57:34 10° W 22:57:59 10° WNW visible
27 Oct 4.3 18:59:27 14° E 19:02:08 20° NE 19:05:49 10° N visible
27 Oct 2.8 20:39:39 62° SSE 20:40:32 85° ENE 20:45:40 10° NNW visible
27 Oct 5.2 22:19:53 19° W 22:20:14 19° W 22:23:53 10° NW visible
28 Oct 4.8 18:23:45 10° ENE 18:25:58 13° NE 18:28:12 10° NNE visible
28 Oct 3.2 20:02:40 39° ESE 20:03:55 48° ENE 20:08:48 10° N visible
28 Oct 4.3 21:42:52 34° W 21:43:07 35° W 21:47:47 10° NNW visible
29 Oct 3.9 18:25:40 23° E 18:27:28 28° ENE 18:31:47 10° N visible
29 Oct 3.3 20:05:53 62° WSW 20:06:11 64° WSW 20:11:16 10° NNW visible
29 Oct 5.7 21:46:05 12° W 21:46:16 12° W 21:48:23 10° WNW visible
30 Oct 4.5 17:48:40 13° E 17:51:10 18° NE 17:54:30 10° N visible
30 Oct 2.8 19:28:53 65° ESE 19:29:26 72° ENE 19:34:32 10° NNW visible
30 Oct 5.0 21:09:06 23° W 21:09:06 23° W 21:13:02 10° NW visible
31 Oct 4.9 17:13:32 10° ENE 17:15:03 11° NE 17:16:34 10° NNE visible
31 Oct 3.4 18:51:53 37° E 18:52:52 41° ENE 18:57:37 10° N visible
31 Oct 4.1 20:32:06 41° W 20:32:06 41° W 20:36:46 10° NNW visible
